Caslav, Czech Republic

4:31 AM CEST on April 26, 2018 (GMT +0200)
Caslav

Weather History for LKCV - February, 2013

Change the Weather History Date:

Thursday, February 28, 2013

  Actual Average Record
Temperature  
Mean Temperature 36 °F -  
Max Temperature 41 °F - - ()
Min Temperature 32 °F - - ()
Degree Days  
Heating Degree Days 28    
Moisture  
Dew Point 34 °F    
Average Humidity 92    
Maximum Humidity 100    
Minimum Humidity 76    
Precipitation  
Precipitation 0.00 in - - ()
Sea Level Pressure  
Sea Level Pressure 30.29 in    
Wind  
Wind Speed 2 mph ()    
Max Wind Speed 7 mph    
Max Gust Speed -    
Visibility 4.4 miles    
Events      
T = Trace of Precipitation, MM = Missing Value Source: Averaged Metar Reports

Daily Weather History Graph

Daily Weather History Graph

Search for Another Location

Airport or City:

Astronomy

Feb. 28, 2013 Rise Set
Actual Time 6:43 AM CET 5:39 PM CET
Civil Twilight 6:11 AM CET 6:11 PM CET
Nautical Twilight 5:33 AM CET 6:48 PM CET
Astronomical Twilight 4:56 AM CET 7:26 PM CET
Moon 9:11 PM CET (2/28) 7:22 AM CET (2/28)
Length of Visible Light 12h 00m
Length of Day
10h 55m
Waning Gibbous, 92% of the Moon is Illuminated
Feb 28
Waning Gibbous
Mar 4
Last Quarter
Mar 11
New
Mar 19
First Quarter
Mar 27
Full

Hourly Weather History & Observations

Time (CET) Temp. Windchill Dew Point Humidity Pressure Visibility Wind Dir Wind Speed Gust Speed Precip Events Conditions
12:00 AM 33.8 °F 29.6 °F 33.8 °F 100% 30.36 in 6.2 mi NW 4.6 mph - N/A   Overcast
1:00 AM 33.8 °F 29.6 °F 33.8 °F 100% 30.36 in 6.2 mi NW 4.6 mph - N/A   Overcast
3:00 AM 33.8 °F 29.6 °F 33.8 °F 100% 30.36 in 3.7 mi NW 4.6 mph - N/A   Mostly Cloudy
4:00 AM 33.8 °F - 32.0 °F 93% 30.33 in 3.7 mi NW 2.3 mph - N/A   Mostly Cloudy
5:00 AM 32.0 °F - 32.0 °F 100% 30.33 in 3.7 mi Calm Calm - N/A   Overcast
6:00 AM 33.8 °F - 32.0 °F 93% 30.33 in 3.1 mi Calm Calm - N/A   Overcast
6:22 AM 32.0 °F - 32.0 °F 100% 30.33 in 1.9 mi Calm Calm - N/A   Overcast
7:00 AM 32.0 °F - 32.0 °F 100% 30.33 in 1.9 mi Calm Calm - N/A   Overcast
8:00 AM 33.8 °F - 32.0 °F 93% 30.33 in 1.9 mi Calm Calm - N/A   Overcast
9:00 AM 33.8 °F - 33.8 °F 100% 30.33 in 2.2 mi Calm Calm - N/A   Overcast
10:00 AM 35.6 °F 32.8 °F 33.8 °F 93% 30.33 in 2.5 mi NNW 3.5 mph - N/A   Overcast
10:45 AM 37.4 °F - 35.6 °F 93% 30.33 in 3.1 mi Variable 2.3 mph - N/A   Overcast
11:00 AM 37.4 °F - 35.6 °F 93% 30.33 in 3.1 mi Variable 1.2 mph - N/A   Overcast
12:00 PM 39.2 °F - 33.8 °F 81% 30.30 in 5.0 mi Variable 2.3 mph - N/A   Overcast
1:00 PM 39.2 °F - 33.8 °F 81% 30.30 in 5.0 mi Variable 2.3 mph - N/A   Overcast
2:00 PM 39.2 °F - 33.8 °F 81% 30.27 in 6.2 mi Variable 1.2 mph - N/A   Overcast
3:00 PM 41.0 °F - 33.8 °F 76% 30.24 in 6.2 mi Variable 2.3 mph - N/A   Overcast
5:00 PM 39.2 °F - 35.6 °F 87% 30.21 in 6.2 mi Variable 2.3 mph - N/A   Overcast
6:00 PM 39.2 °F 35.9 °F 33.8 °F 81% 30.21 in 5.0 mi NW 4.6 mph - N/A   Overcast
7:00 PM 37.4 °F 34.9 °F 35.6 °F 93% 30.21 in 6.2 mi West 3.5 mph - N/A   Overcast
8:00 PM 37.4 °F 32.1 °F 35.6 °F 93% 30.21 in 6.2 mi NW 6.9 mph - N/A   Overcast
9:00 PM 37.4 °F - 35.6 °F 93% 30.18 in 6.2 mi WSW 2.3 mph - N/A   Overcast
11:00 PM 35.6 °F - 33.8 °F 93% 30.18 in 6.2 mi West 2.3 mph - N/A   Overcast